Regional Weather Roundup
Issued by NWS Upton, NY

Current Version | Previous Version | Graphics & Text | Print | Product List | Glossary Off
Versions: 1 2 3 4 5 6 7 8 9 10 11 12 13 14 15 16 17 18 19 20 21 22 23 24 25 26 27 28 29 30 31 32 33 34 35 36 37 38 39 40 41 42 43 44 45 46 47 48 49

000
ASUS41 KOKX 272205
RWROKX

REGIONAL WEATHER ROUNDUP
NATIONAL WEATHER SERVICE NEW YORK NY
500 PM EST TUE JAN 27 2015

NOTE: "FAIR" INDICATES FEW OR NO CLOUDS BELOW 12,000 FEET WITH NO
SIGNIFICANT WEATHER AND/OR OBSTRUCTIONS TO VISIBILITY.

NYZ071-072-176-178-NJZ106-104-272300-
NEW YORK CITY METRO AREA


CITY           SKY/WX    TMP DP  RH WIND       PRES   REMARKS
CENTRAL PARK   CLOUDY    26  15  63 N9G17     29.69R WCI  17
LAGUARDIA APRT CLOUDY    25  16  68 N15       29.67R WCI  13
KENNEDY INTL   CLOUDY    26  16  65 N17       29.68R WCI  13
NEWARK/LIBERTY CLOUDY    28  17  63 NW16G25   29.69R WCI  16
BRNX BOT. GARD   N/A    N/A N/A N/A N12       29.69R
TETERBORO      CLOUDY    26  15  63 NE7       29.68R WCI  18
$$

NYZ177-179-078>081-272300-
LONG ISLAND NEW YORK

CITY           SKY/WX    TMP DP  RH WIND       PRES   REMARKS
FARMINGDALE    CLOUDY    25  12  58 N20G28    29.65R WCI  11
ISLIP          CLOUDY    22  12  65 NW29G37   29.62R WCI   4
SHIRLEY        CLOUDY    22  11  62 NW18G33   29.63R WCI   7
WESTHAMPTON    CLOUDY    22  12  65 NW20G26   29.62R WCI   7
MONTAUK POINT    N/A     24  17  74 NW22G31   29.57R WCI   9
$$

NYZ052-065-067-272300-
HUDSON VALLEY

CITY           SKY/WX    TMP DP  RH WIND       PRES   REMARKS
WHITE PLAINS   CLOUDY    22  12  65 N13G23    29.64S WCI  10
NEWBURGH       MOCLDY    23  18  80 NE9       29.69R WCI  13
MONTGOMERY     MOCLDY    23  14  68 NE5       29.68R WCI  17
POUGHKEEPSIE   CLOUDY    20  11  68 N10       29.72R WCI   9
ALBANY         FLURRIES  11   1  64 N10       29.83R WCI  -3
$$

NJZ001-105-106-008-010-013-015-019>022-104-272300-
NEW JERSEY

CITY           SKY/WX    TMP DP  RH WIND       PRES   REMARKS
NEWARK/LIBERTY CLOUDY    28  17  63 NW16G25   29.69R WCI  16
TETERBORO      CLOUDY    26  15  63 NE7       29.68R WCI  18
CALDWELL       CLOUDY    26  14  60 VRB6      29.69R WCI  19
MORRISTOWN     CLOUDY    27  16  63 N12G18    29.69R WCI  16
SOMERVILLE     CLOUDY    28  14  55 NW15G24   29.69R WCI  16
SUSSEX         MOCLDY    24  12  60 NW10G17   29.70R WCI  14
ANDOVER          N/A     24  10  55 N9        29.70R WCI  14
TRENTON        CLOUDY    30  15  53 N16G22    29.69R WCI  19
MILLVILLE      PTCLDY    32  15  49 W12       29.72R WCI  23
ATLANTIC CITY  MOCLDY    31  15  52 NW15      29.70R WCI  20
WRIGHTSTOWN    NOT AVBL
TOMS RIVER     CLOUDY    28  18  64 NW7       29.69R WCI  21
BELMAR         CLOUDY    28  16  59 NW13      29.67R WCI  18
$$

PAZ047>061-062-071-272300-
EASTERN PENNSYLVANIA

CITY           SKY/WX    TMP DP  RH WIND       PRES   REMARKS
PHILADELPHIA   MOCLDY    33  12  41 NW20      29.73R WCI  21
ALLENTOWN      CLOUDY    27   8  44 N14G26    29.73R WCI  16
SCRANTON       MOCLDY    19   4  51 NW10      29.79R WCI   7
$$

CTZ002-004>006-009-010-012-RIZ004-006-007-MAZ004-011-015-272300-
SOUTHERN NEW ENGLAND
 IN CT

CITY           SKY/WX    TMP DP  RH WIND       PRES   REMARKS
BRADLEY INTL   CLOUDY    20   6  55 NW17      29.62R WCI   5
HARTFORD       CLOUDY    20   7  57 NW14G22   29.63R WCI   7
DANBURY        CLOUDY    19   7  59 NW16G24   29.67R WCI   4
WTRBRY/OXFORD  PTCLDY    18   1  49 NW12G20   29.60R WCI   5
BRIDGEPORT     CLOUDY    21  10  62 NW21G32   29.65R WCI   5
MERIDEN        CLOUDY    19   6  57 NW15G25   29.63R WCI   5
NEW HAVEN      CLOUDY    22   9  57 NW20G26   29.63R WCI   7
CHESTER        LGT SNOW  21  10  63 NW15G25   29.57R WCI   8
GROTON         LGT SNOW  20  16  84 NW16      29.56R VSB 1   WCI   6
WILLIMANTIC    SNOW      19  14  81 N15G26    29.58R VSB 1/2 WCI   5

 IN RI

CITY           SKY/WX    TMP DP  RH WIND       PRES   REMARKS
PROVIDENCE     LGT SNOW  19  14  81 NW18G26   29.53R VSB 3/4 WCI   4
BLOCK ISLAND   CLOUDY    21  10  63 N18G29    29.51R WCI   6
WESTERLY       LGT SNOW  21  13  71 NW15G26   29.55R WCI   8

 IN MA

CITY           SKY/WX    TMP DP  RH WIND       PRES   REMARKS
BOSTON         LGT SNOW  18  12  77 N24G35    29.53R WCI   0
WORCESTER      LGT SNOW  13   7  77 NW17G26   29.50R WCI  -4
WESTFIELD      CLOUDY    18   5  57 N22G35    29.62R WCI   1
PROVINCETOWN     N/A    N/A N/A N/A MISG        N/A
NANTUCKET      HVY SNOW  21  20  96 NW40G58   29.36R VSB 1/4 WCI   0
$$

ANZ330-335-338-340-345-350-353-355-272300-
COASTAL MARINE OBSERVATIONS


STATION/POSITION TIME  SKY/WX   TEMP    WIND        PRES    VSBY  WAVE
                                AIR SEA DIR/SP/G                  HT/PER
                 (UTC)          (F)     (DEG/KT/KT) (MB)    (MI)  (FT/S)
NY HARB ENTRANCE 2200            29 40  340/ 19/ 23 1003.9          6/12
4S FIRE IS       2200               38                N/A           6/13
20S FIRE ISLAND  2100               43              1002.1         10/11
23SW MTP         2200                                 N/A           9/12
HUDSON CANYON    NOT AVBL
EXECUTION ROCKS  2200            26 34  340/ 16/ 23   N/A
WESTERN LI SOUND 2200            26     350/ 19/ 25   N/A           2/ 3
CENTRAL LI SOUND 2100            24 36  320/ 21/ 27   N/A           3/ 4
EASTERN LI SOUND NOT AVBL
ROBBINS REEF     2200            28     330/ 13/ 19 1003.7
$$


>>>>>>>>>>>>>>>>>>>>>>>>>>>> KEY <<<<<<<<<<<<<<<<<<<<<<<<<<<
>                                                          <
>     SKY/WX - SKY CONDITION/PRESENT WEATHER               <
>     TMP    - TEMPERATURE IN FAHRENHEIT                   <
>     DP     - DEWPOINT IN FAHRENHEIT                      <
>     RH     - RELATIVE HUMIDITY IN PERCENT                <
>     WIND   - DIRECTION AND SPEED IN MPH                  <
>     PRES   - MEAN SEA LEVEL PRESSURE IN INCHES OF HG     <
>     WCI    - WIND CHILL INDEX                            <
>     VSB    - VISIBILITY IN MILES                         <
>     HX     - HEAT INDEX                                  <
>     TC     - TEMPERATURE IN CELSIUS                      <
>     VRB    - VARIABLE WIND DIRECTION                     <
>                                                          <
>>>>>>>>>>>>>>>>>>>>>>>>>>>> KEY <<<<<<<<<<<<<<<<<<<<<<<<<<<




USA.gov is the U.S. government's official web portal to all federal, state and local government web resources and services.